Weather History for Madison, WI

Change the Weather History Date:

Saturday, January 19, 2013

  Actual Average Record
Temperature  
Mean Temperature 31 °F 18 °F  
Max Temperature 45 °F 26 °F 47 °F (1933)
Min Temperature 16 °F 11 °F -27 °F (1994)
Degree Days  
Heating Degree Days 34 47  
Month to date heating degree days 778 882  
Since 1 July heating degree days 3373 3761  
Cooling Degree Days 0 0  
Month to date cooling degree days 0 0  
Year to date cooling degree days 0 0  
Moisture  
Dew Point 25 °F    
Average Humidity 60    
Maximum Humidity 82    
Minimum Humidity 38    
Precipitation  
Precipitation T in 0.04 in 1.07 in (1995)
Month to date precipitation 0.28 0.76  
Year to date precipitation 0.28 0.76  
Snow  
Snow T in 0.40 in 12.60 in (1995)
Month to date snowfall T 7.9  
Since 1 July snowfall 23.5 25.5  
Snow Depth 1.00 in    
Sea Level Pressure  
Sea Level Pressure 29.80 in    
Wind  
Wind Speed 10 mph (WSW)    
Max Wind Speed 31 mph    
Max Gust Speed 48 mph    
Visibility 10 miles    
Events      
T = Trace of Precipitation, MM = Missing Value Source: NWS Daily Summary

Daily Weather History Graph

Daily Weather History Graph

Search for Another Location

Airport:

Trip Planner

Search our weather history database for the weather conditions in past years. The results will help you decide how hot, cold, wet, or windy it might be!

Date:

Astronomy

Jan. 19, 2013 Rise Set
Actual Time 7:23 AM CST 4:53 PM CST
Civil Twilight 6:52 AM CST 5:24 PM CST
Nautical Twilight 6:17 AM CST 5:59 PM CST
Astronomical Twilight 5:43 AM CST 6:33 PM CST
Moon 11:21 AM CST (1/19) 12:55 AM CST (1/19)
Length of Visible Light 10h 31m
Length of Day
9h 29m
First Quarter, 57% of the Moon is Illuminated
Jan 19
First Quarter
Jan 26
Full
Feb 3
Last Quarter
Feb 10
New
Feb 17
First Quarter

Hourly Weather History & Observations

Time (CST) Temp. Windchill Dew Point Humidity Pressure Visibility Wind Dir Wind Speed Gust Speed Precip Events Conditions
12:53 AM 37.9 °F 35.5 °F 30.0 °F 73% 29.85 in 10.0 mi SSW 3.5 mph - N/A   Clear
1:53 AM 37.0 °F 34.5 °F 30.0 °F 76% 29.86 in 10.0 mi SSW 3.5 mph - N/A   Clear
2:53 AM 37.0 °F 33.3 °F 30.0 °F 76% 29.85 in 10.0 mi SW 4.6 mph - N/A   Partly Cloudy
3:53 AM 37.9 °F 32.7 °F 30.9 °F 76% 29.84 in 10.0 mi SW 6.9 mph - N/A   Overcast
4:53 AM 37.0 °F 33.3 °F 30.9 °F 79% 29.83 in 10.0 mi South 4.6 mph - N/A   Mostly Cloudy
5:53 AM 37.4 °F 34.9 °F 30.2 °F 75% 29.81 in 10.0 mi SSW 3.5 mph - N/A   Overcast
6:53 AM 37.0 °F 34.5 °F 30.0 °F 76% 29.83 in 10.0 mi SSW 3.5 mph - N/A   Overcast
7:53 AM 36.0 °F 31.1 °F 30.9 °F 82% 29.81 in 10.0 mi South 5.8 mph - N/A   Overcast
8:53 AM 37.9 °F 32.1 °F 30.9 °F 76% 29.80 in 10.0 mi SSW 8.1 mph - N/A   Overcast
9:53 AM 39.0 °F 34.8 °F 30.9 °F 73% 29.78 in 10.0 mi Variable 5.8 mph - N/A   Overcast
10:53 AM 39.9 °F 35.1 °F 30.9 °F 70% 29.77 in 10.0 mi WSW 6.9 mph - N/A   Mostly Cloudy
11:53 AM 41.0 °F 34.7 °F 30.9 °F 67% 29.71 in 10.0 mi SW 10.4 mph 17.3 mph N/A   Scattered Clouds
12:53 PM 42.1 °F 37.7 °F 30.9 °F 65% 29.70 in 10.0 mi Variable 6.9 mph 16.1 mph N/A   Partly Cloudy
1:53 PM 44.1 °F 39.5 °F 32.0 °F 63% 29.67 in 10.0 mi WSW 8.1 mph - N/A   Clear
2:53 PM 45.0 °F 40.1 °F 30.9 °F 58% 29.69 in 10.0 mi WSW 9.2 mph - N/A   Scattered Clouds
3:53 PM 44.1 °F 38.6 °F 32.0 °F 63% 29.69 in 10.0 mi SW 10.4 mph 16.1 mph N/A   Scattered Clouds
4:53 PM 43.0 °F 38.8 °F 30.9 °F 62% 29.70 in 10.0 mi WSW 6.9 mph - N/A   Partly Cloudy
5:53 PM 43.0 °F 35.4 °F 28.0 °F 56% 29.72 in 10.0 mi West 16.1 mph 28.8 mph N/A   Partly Cloudy
6:53 PM 41.0 °F 32.2 °F 25.0 °F 53% 29.74 in 10.0 mi WNW 18.4 mph 28.8 mph 0.00 in   Unknown
7:53 PM 37.0 °F 26.2 °F 12.9 °F 37% 29.74 in 10.0 mi West 21.9 mph 40.3 mph 0.00 in   Clear
8:53 PM 26.1 °F 14.0 °F 5.0 °F 41% 29.83 in 10.0 mi WNW 15.0 mph 33.4 mph N/A   Clear
9:53 PM 21.0 °F 8.6 °F 6.1 °F 53% 29.89 in 10.0 mi WNW 12.7 mph 31.1 mph N/A   Partly Cloudy
10:53 PM 18.0 °F 0.9 °F 3.9 °F 54% 29.94 in 10.0 mi WNW 21.9 mph 33.4 mph N/A   Partly Cloudy
11:53 PM 16.0 °F -0.9 °F 3.0 °F 57% 29.99 in 10.0 mi NW 19.6 mph 28.8 mph N/A   Mostly Cloudy